Torna al catalogo

COSMOS 2473

AttivoNavigazioneGEO
NORAD 37806·PAYLOAD·🇷🇺 Russia

Lanciato Sep 20, 2011 da Baikonur Cosmodrome

Loading…

TLE

AggiornatoSource: Space-Track

Epoca: Sep 14, 2026, 18:08 UTC

1 37806U 11048A   26257.75603419  .00000112  00000-0  00000-0 0  9999
2 37806   5.7994  72.3262 0006340 136.4909 250.9093  1.00292171  8376

Traccia COSMOS 2473 in tempo reale con AllMySat

Download on the App Store